Location: Unspecified
(43.3830°N, 0.0000°E)
Time: 04:39:53
(UTC+00:00)

Explorer 7 - Pass Details

Date: 29 June 2019
Orbit: 485 x 680 km, 50.3° (Epoch: 19 July)

Event Time Altitude Azimuth Distance (km) Brightness Sun altitude
Rises 10:55:52 0° 299° (WNW) 2,842 10.2 65.5°
Reaches altitude 10° 10:58:08 10° 302° (WNW) 1,970 9.5 65.8°
Maximum altitude 11:02:38 63° 24° (NNE) 714 8.3 66.3°
Drops below altitude 10° 11:07:23 10° 106° (ESE) 2,069 10.2 66.8°
Sets 11:09:48 0° 109° (ESE) 2,999 10.8 67.0°
